Regional Weather Roundup
Issued by NWS

Home | Current Version | Previous Version | Text Only | Print | Product List | Glossary On
Versions: 1 2 3 4 5 6 7 8 9 10 11 12 13 14 15 16 17 18 19 20 21 22 23 24 25 26 27 28 29 30 31 32 33 34 35 36 37 38 39 40 41 42 43 44 45 46 47 48 49 50
000
ASUS43 KDMX 261804
RWRIA

WEATHER ROUNDUP FOR IOWA
NATIONAL WEATHER SERVICE DES MOINES IA
  ISSUED BY NWS QUAD CITIES IA IL
1200 PM CST THU FEB 26 2015

NOTE: "FAIR" INDICATES FEW OR NO CLOUDS BELOW 12,000 FEET WITH NO
SIGNIFICANT WEATHER AND/OR OBSTRUCTIONS TO VISIBILITY.

* - THESE STATIONS ARE NOT NWS STATIONS...THUS NOT UNDER NWS
QUALITY CONTROL.  THEY ALSO DO NOT REPORT WEATHER SUCH
AS PRECIPITATION OR FOG.

IAZ001>003-012>014-020>022-031>034-043>046-261900-
   NORTHWEST IOWA

CITY           SKY/WX    TMP DP  RH WIND       PRES   REMARKS
CARROLL *      PTSUNNY    3  -6  66 NW14      30.48R WCI -15
CHEROKEE *     PTCLDY     2  -7  67 NW13      30.50S WCI -16
6HR MIN TEMP:  -8; 6HR MAX TEMP:   2;

DENNISON *     MOSUNNY    1  -8  66 NW15      30.48R WCI -18
LE MARS *      PTSUNNY    3  -4  72 N16       30.53F WCI -16
ORANGE CITY *  SUNNY      3  -6  66 NW16      30.49R WCI -16
SHELDON *      MOSUNNY    1  -8  66 N18       30.48R WCI -19
SIOUX CITY     PTSUNNY    7  -4  60 NW17      30.54R WCI -12
6HR MIN TEMP:  -2; 6HR MAX TEMP:   7;

SPENCER        PTSUNNY    4  -6  63 N12       30.47S WCI -12
6HR MIN TEMP:  -7; 6HR MAX TEMP:   4;

STORM LAKE *   MOSUNNY    1  -8  66 NW14      30.46S WCI -17
$$

IAZ055>058-069>071-079>083-090>094-261900-
   SOUTHWEST IOWA

CITY           SKY/WX    TMP DP  RH WIND       PRES   REMARKS
ATLANTIC *     PTSUNNY    5  -4  66 NW14      30.49R WCI -12
AUDUBON *      SUNNY      3  -6  66 NW12      30.47R WCI -13
CLARINDA *     SUNNY      9   0  66 N16       30.51F WCI  -9
COUNCIL BLFS * MOSUNNY    5  -2  72 N8G17     30.49R WCI  -8
CRESTON *      MOSUNNY    7  -2  66 NW15      30.44S WCI -11
HARLAN *       SUNNY      3  -4  72 N16       30.53R WCI -16
LAMONI         SUNNY      9  -4  55 N15       30.42R WCI  -8
6HR MIN TEMP:   2; 6HR MAX TEMP:   9;

RED OAK *      MOSUNNY    7   0  72 NW10G17   30.51S WCI  -8
SHENANDOAH *   PTSUNNY    9   1  72 N15G21    30.52S WCI  -8
$$

IAZ047>049-059>061-072>074-084-261900-
   CENTRAL IOWA

CITY           SKY/WX    TMP DP  RH WIND       PRES   REMARKS
AMES           SUNNY      4  -5  66 NW15      30.46R WCI -14
6HR MIN TEMP:  -3; 6HR MAX TEMP:   4;

ANKENY *       SUNNY      5  -6  61 NW15      30.47R WCI -13
BOONE *        SUNNY      3  -6  66 N17       30.43S WCI -17
CHARITON *     SUNNY      9  -4  56 NW16G23   30.42R WCI  -9
DES MOINES     SUNNY      9  -5  53 N14       30.45R WCI  -7
6HR MIN TEMP:   2; 6HR MAX TEMP:   9;

GRINNELL *     CLEAR      5  -4  66 NW14      30.41S WCI -12
6HR MIN TEMP:  -2; 6HR MAX TEMP:   5;

KNOXVILLE *    SUNNY      7  -6  56 NW16      30.42R WCI -11
MARSHALLTOWN   SUNNY      4  -5  66 N16       30.42R WCI -15
6HR MIN TEMP:  -3; 6HR MAX TEMP:   4;

NEWTON *       SUNNY      5  -6  61 NW16      30.43R WCI -14
PELLA *        SUNNY      8  -1  67 NW16      30.44S WCI -10
6HR MIN TEMP:   1; 6HR MAX TEMP:   8;

PERRY *          N/A      5  -2  74 NW14      30.48R WCI -12
6HR MIN TEMP:  -2; 6HR MAX TEMP:   5;

$$

IAZ004>006-015-016-023>025-035-036-261900-
   NORTH CENTRAL IOWA

CITY           SKY/WX    TMP DP  RH WIND       PRES   REMARKS
ALGONA *       MOSUNNY    1  -6  71 NW13      30.47R WCI -16
CLARION *      PTSUNNY    1  -6  71 N15G21    30.45S WCI -18
ESTHERVILLE    MOSUNNY    1  -7  68 N15       30.46R WCI -18
6HR MIN TEMP: -10; 6HR MAX TEMP:   1;

FORT DODGE *   SUNNY      3  -8  60 N10G16    30.48R WCI -12
6HR MIN TEMP:  -6; 6HR MAX TEMP:   3;

MASON CITY     SUNNY      1  -7  68 NW14      30.44R WCI -17
6HR MIN TEMP:  -9; 6HR MAX TEMP:   1;

FOREST CITY *  FAIR       1  -8  66 NW12      30.44R HAZE    WCI -15
WEBSTER CITY * MOSUNNY    1  -6  71 N18       30.44R WCI -19
IOWA FALLS *   FAIR       3  -6  65 NW16      30.43S WCI -16
6HR MIN TEMP:  -7; 6HR MAX TEMP:   3;

$$

IAZ007>011-017>019-026>030-037>042-050>054-066-261900-
   NORTHEAST IOWA

CITY           SKY/WX    TMP DP  RH WIND       PRES   REMARKS
CEDAR RAPIDS   SUNNY      7  -3  64 NW13      30.36R WCI  -9
6HR MIN TEMP:   0; 6HR MAX TEMP:   7;

CHARLES CITY * SUNNY      3  -8  60 NW13      30.41R WCI -14
CLINTON *      MOSUNNY   10   1  67 N12       30.36R WCI  -4
6HR MIN TEMP:   7; 6HR MAX TEMP:  10;

DECORAH *      SUNNY      5  -6  61 NW14      30.36R WCI -12
DUBUQUE        SUNNY      8  -3  61 N10       30.31R WCI  -6
6HR MIN TEMP:   2; 6HR MAX TEMP:   8;

MONTICELLO *   SUNNY      9  -4  56 NW15      30.36R WCI  -8
OELWEIN *      SUNNY      5  -6  61 N13       30.38S WCI -12
WATERLOO       SUNNY      5  -6  60 NW13      30.41R WCI -12
6HR MIN TEMP:  -7; 6HR MAX TEMP:   5; 6HR PCP:  0.01;

$$

IAZ064-065-067-068-078-261900-
   EAST CENTRAL IOWA

CITY           SKY/WX    TMP DP  RH WIND       PRES   REMARKS
DAVENPORT      SUNNY     11   0  61 N13       30.34R WCI  -4
6HR MIN TEMP:   8; 6HR MAX TEMP:  11;

IOWA CITY      SUNNY     10  -1  61 NW14      30.39R WCI  -6
6HR MIN TEMP:   6; 6HR MAX TEMP:  10;

MT. PLEASANT * SUNNY      8  -3  59 NW13      30.37R WCI  -7
6HR MIN TEMP:   8; 6HR MAX TEMP:  10;

MUSCATINE *    SUNNY     10  -2  56 N15       30.38S WCI  -6
QUAD CITIES    SUNNY     14   2  58 NW12      30.33R WCI   0
6HR MIN TEMP:  11; 6HR MAX TEMP:  14; 6HR PCP: TRACE;

$$

IAZ062-063-075>077-085>089-095>099-261900-
   SOUTHEAST IOWA

CITY           SKY/WX    TMP DP  RH WIND       PRES   REMARKS
BURLINGTON     SUNNY     13   1  59 N13       30.34R WCI  -2
6HR MIN TEMP:  10; 6HR MAX TEMP:  13; 6HR PCP: TRACE;

FAIRFIELD *    SUNNY      9  -4  56 NW18      30.38R WCI -10
FORT MADISON * SUNNY     10   1  67 NW13      30.35R WCI  -5
KEOKUK *       SUNNY     12   0  57 NW16G22   30.35R WCI  -4
OSKALOOSA *    FAIR       8  -1  65 NW17      30.41R WCI -10
6HR MIN TEMP:   3; 6HR MAX TEMP:   8;

CENTERVILLE *  FAIR      10   0  61 NW14      30.40S WCI  -5
OTTUMWA        SUNNY      8  -2  63 NW18      30.40R WCI -11
6HR MIN TEMP:   3; 6HR MAX TEMP:   8;

WASHINGTON *   SUNNY      9   1  72 N15       30.38R WCI  -8
$$

ABBREVIATIONS USED IN REMARKS
   TC - TEMPERATURES IN CELSIUS
  WCI - WIND CHILL INDEX
   HX - HEAT INDEX
  VSB - VISIBILITY
$$



USA.gov is the U.S. government's official web portal to all federal, state and local government web resources and services.